| time (UTC) | temp C | wind direction | speed KPH | gust KPH | rain 1hr cm | rain 24hr cm | rain mn cm | humidity % | barometer mb |
| 20260504201514 | 21 | 261 | 3.2 | 12.9 | 0.00 | 0.00 | 0.00 | 32 | 1004.6 |
| 20260504200019 | 21 | 276 | 4.8 | 9.7 | 0.00 | 0.00 | 0.00 | 34 | 1004.6 |
| 20260504194523 | 20 | 227 | 3.2 | 11.3 | 0.00 | 0.00 | 0.00 | 37 | 1004.9 |
| 20260504193020 | 21 | 263 | 3.2 | 17.7 | 0.00 | 0.00 | 0.00 | 36 | 1004.9 |
| 20260504191512 | 21 | 273 | 3.2 | 8.0 | 0.00 | 0.00 | 0.00 | 35 | 1005.1 |
| 20260504190013 | 20 | 98 | 4.8 | 11.3 | 0.00 | 0.00 | 0.00 | 36 | 1005.2 |
| 20260504184517 | 19 | 269 | 4.8 | 11.3 | 0.00 | 0.00 | 0.00 | 39 | 1005.4 |
| 20260504183026 | 18 | 257 | 4.8 | 9.7 | 0.00 | 0.00 | 0.00 | 42 | 1005.4 |
| 20260504181522 | 17 | 295 | 3.2 | 9.7 | 0.00 | 0.00 | 0.00 | 44 | 1005.7 |
| 20260504180013 | 15 | 60 | 1.6 | 14.5 | 0.00 | 0.00 | 0.00 | 50 | 1006.1 |
| 20260504174519 | 15 | 278 | 3.2 | 9.7 | 0.00 | 0.00 | 0.00 | 46 | 1006.0 |
| 20260504173016 | 16 | 279 | 4.8 | 16.1 | 0.00 | 0.00 | 0.00 | 45 | 1005.9 |
| 20260504171526 | 16 | 120 | 1.6 | 17.7 | 0.00 | 0.00 | 0.00 | 45 | 1005.8 |
| 20260504081525 | 2 | 69 | 0.0 | 6.4 | 0.00 | 0.00 | 0.00 | 83 | 1008.0 |
| 20260504050022 | 1 | 245 | 0.0 | 1.6 | 0.00 | 0.00 | 0.00 | 81 | 1007.9 |
| 20260504044534 | 2 | 199 | 0.0 | 0.0 | 0.00 | 0.00 | 0.00 | 81 | 1008.0 |
| 20260504043034 | 2 | 169 | 1.6 | 3.2 | 0.00 | 0.00 | 0.00 | 76 | 1008.1 |
| 20260504041522 | 2 | 191 | 0.0 | 1.6 | 0.00 | 0.00 | 0.00 | 76 | 1008.0 |
| 20260504040022 | 2 | 209 | 0.0 | 1.6 | 0.00 | 0.00 | 0.00 | 74 | 1007.9 |
| 20260504034516 | 2 | 165 | 0.0 | 1.6 | 0.00 | 0.00 | 0.00 | 75 | 1007.9 |
| 20260504033024 | 2 | 217 | 1.6 | 3.2 | 0.00 | 0.05 | 0.00 | 74 | 1007.9 |
| 20260504031526 | 3 | 205 | 0.0 | 1.6 | 0.00 | 0.13 | 0.00 | 72 | 1007.8 |
| 20260504030026 | 3 | 162 | 0.0 | 6.4 | 0.00 | 0.23 | 0.00 | 72 | 1007.8 |
| 20260504024517 | 3 | 219 | 0.0 | 1.6 | 0.00 | 0.33 | 0.00 | 72 | 1007.8 |
| 20260504023022 | 3 | 167 | 0.0 | 1.6 | 0.00 | 0.41 | 0.00 | 70 | 1008.0 |
| 20260504021519 | 3 | 156 | 0.0 | 1.6 | 0.00 | 0.46 | 0.00 | 70 | 1007.9 |
| 20260504020034 | 3 | 229 | 0.0 | 6.4 | 0.00 | 0.46 | 0.00 | 71 | 1007.8 |
| 20260504014535 | 4 | 169 | 3.2 | 4.8 | 0.00 | 0.46 | 0.00 | 66 | 1007.8 |
| 20260504013021 | 4 | 210 | 1.6 | 3.2 | 0.00 | 0.46 | 0.00 | 68 | 1007.8 |
| 20260504011523 | 4 | 167 | 1.6 | 6.4 | 0.00 | 0.46 | 0.00 | 66 | 1007.6 |
| 20260504010022 | 4 | 197 | 0.0 | 3.2 | 0.00 | 0.46 | 0.00 | 69 | 1007.6 |
| 20260504004520 | 5 | 165 | 1.6 | 6.4 | 0.00 | 0.46 | 0.00 | 63 | 1007.5 |
| 20260504003029 | 5 | 139 | 3.2 | 4.8 | 0.00 | 0.46 | 0.00 | 65 | 1007.3 |
| 20260504001523 | 5 | 11 | 0.0 | 6.4 | 0.00 | 0.46 | 0.00 | 63 | 1007.3 |
| 20260504000026 | 5 | 134 | 0.0 | 3.2 | 0.00 | 0.46 | 0.00 | 62 | 1007.0 |
| 20260503234528 | 6 | 181 | 0.0 | 4.8 | 0.00 | 0.46 | 0.00 | 57 | 1006.8 |
| 20260503233026 | 6 | 186 | 0.0 | 11.3 | 0.00 | 0.46 | 0.00 | 62 | 1006.7 |
| 20260503231522 | 7 | 220 | 0.0 | 4.8 | 0.00 | 0.46 | 0.00 | 54 | 1006.7 |
| 20260503230018 | 7 | 188 | 0.0 | 8.0 | 0.00 | 0.46 | 0.00 | 51 | 1006.6 |
| 20260503224521 | 7 | 233 | 0.0 | 11.3 | 0.00 | 0.46 | 0.00 | 51 | 1006.6 |
| 20260503223024 | 8 | 279 | 3.2 | 8.0 | 0.00 | 0.46 | 0.00 | 48 | 1006.5 |
| 20260503221525 | 8 | 216 | 1.6 | 8.0 | 0.00 | 0.46 | 0.00 | 45 | 1006.3 |
| 20260503220024 | 8 | 310 | 1.6 | 9.7 | 0.00 | 0.46 | 0.00 | 48 | 1006.1 |
| 20260503214535 | 7 | 293 | 3.2 | 14.5 | 0.00 | 0.46 | 0.00 | 47 | 1006.2 |
| 20260503213021 | 8 | 320 | 3.2 | 14.5 | 0.00 | 0.46 | 0.00 | 49 | 1006.4 |
| 20260503211524 | 8 | 26 | 3.2 | 11.3 | 0.00 | 0.46 | 0.00 | 47 | 1006.4 |
| 20260503210026 | 8 | 353 | 3.2 | 20.9 | 0.00 | 0.46 | 0.00 | 43 | 1006.1 |
| 20260503204533 | 9 | 89 | 6.4 | 17.7 | 0.00 | 0.46 | 0.00 | 43 | 1005.9 |
| 20260503203022 | 10 | 333 | 1.6 | 16.1 | 0.00 | 0.46 | 0.00 | 46 | 1005.8 |